This is the latest recevied weather packets stored in our database for station/object N5SOR-1. If no packets are shown the sender has not sent any weather packets the latest 10 day(s).
| Time | Temp. | Humidity | Pressure | Rain* | Wind** | Luminosity | Snow |
|---|---|---|---|---|---|---|---|
| 1777753573 | 18.33° C | 41% | 1025 hPa | 0 mm | - | 962 W/m² | - |
| 1777752912 | 18.33° C | 44% | 1025 hPa | 0 mm | - | 970 W/m² | - |
| 1777752252 | 18.89° C | 42% | 1024.9 hPa | 0 mm | - | 976 W/m² | - |
| 1777751591 | 17.78° C | 42% | 1025.2 hPa | 0 mm | - | 979 W/m² | - |
| 1777750931 | 18.33° C | 42% | 1025.3 hPa | 0 mm | - | 986 W/m² | - |
| 1777750270 | 17.78° C | 44% | 1025.3 hPa | 0 mm | - | 977 W/m² | - |
| 1777749609 | 17.78° C | 43% | 1025.3 hPa | 0 mm | - | 947 W/m² | - |
| 1777748949 | 17.22° C | 43% | 1025.4 hPa | 0 mm | - | 967 W/m² | - |
| 1777748288 | 16.67° C | 46% | 1025.5 hPa | 0 mm | - | 962 W/m² | - |
| 1777747628 | 16.67° C | 44% | 1025.7 hPa | 0 mm | - | 954 W/m² | - |
| 1777746967 | 16.67° C | 46% | 1025.8 hPa | 0 mm | - | 944 W/m² | - |
| 1777746306 | 16.67° C | 46% | 1026.2 hPa | 0 mm | - | 914 W/m² | - |
| 1777745646 | 16.11° C | 48% | 1026.3 hPa | 0 mm | - | 768 W/m² | - |
| 1777744985 | 16.11° C | 47% | 1026.3 hPa | 0 mm | - | 206 W/m² | - |
| 1777744324 | 15.56° C | 46% | 1026.6 hPa | 0 mm | - | 53 W/m² | - |
| 1777743664 | 16.11° C | 47% | 1026.6 hPa | 0 mm | - | 737 W/m² | - |
| 1777743003 | 15° C | 50% | 1026.8 hPa | 0 mm | - | 49 W/m² | - |
| 1777742343 | 15.56° C | 49% | 1026.9 hPa | 0 mm | - | 802 W/m² | - |
| 1777741682 | 15° C | 51% | 1026.8 hPa | 0 mm | - | 336 W/m² | - |
| 1777741021 | 15° C | 54% | 1027 hPa | 0 mm | - | 137 W/m² | - |
| 1777740361 | 14.44° C | 56% | 1027.1 hPa | 0 mm | - | 93 W/m² | - |
| 1777739700 | 14.44° C | 55% | 1027.1 hPa | 0 mm | - | 95 W/m² | - |
| 1777739040 | 13.89° C | 55% | 1026.9 hPa | 0 mm | - | 471 W/m² | - |
| 1777738379 | 13.89° C | 58% | 1026.9 hPa | 0 mm | - | 44 W/m² | - |
| 1777737718 | 13.33° C | 61% | 1026.8 hPa | 0 mm | - | 105 W/m² | - |
* Rain latest hour (hover to see other rain measurements)
** Current wind speed in m/s (hover to see current wind gust speed)